Location: *
(51.1248°S, 108.4023°W)
Time: 04:59:00
(UTC+00:00)

COSMOS 2455 - Pass Details

Date: 15 June 2021
Orbit: 901 x 909 km, 67.1° (Epoch: 31 July)

Event Time Altitude Azimuth Distance (km) Brightness Sun altitude
Exits shadow 12:09:15 50° 187° (S) 1,155 3.2 -28.0°
Maximum altitude 12:10:40 65° 132° (SE) 1,003 3.1 -27.8°
Drops below altitude 10° 12:16:39 10° 49° (NE) 2,593 5.9 -26.8°
Sets 12:19:11 0° 46° (NE) 3,527 6.7 -26.4°
